Weather History for Monarch Pass, CO

Change the Weather History Date:

Friday, August 2, 2013

  Actual Average (KGUC) Record (KGUC)
Temperature  
Mean Temperature 52 °F -  
Max Temperature 62 °F 76 °F 84 °F (2000)
Min Temperature 41 °F 45 °F 37 °F (1998)
Degree Days  
Heating Degree Days 14    
Growing Degree Days 2 (Base 50)    
Moisture  
Dew Point 40 °F    
Average Humidity 71    
Maximum Humidity 100    
Minimum Humidity 34    
Precipitation  
Precipitation 0.00 in - - ()
Sea Level Pressure  
Sea Level Pressure 30.71 in    
Wind  
Wind Speed 22 mph (West)    
Max Wind Speed 36 mph    
Max Gust Speed 45 mph    
Averages and records for this station are not official NWS values.
T = Trace of Precipitation, MM = Missing Value Source: NWS Daily Summary

Daily Weather History Graph

Daily Weather History Graph

Search for Another Location

Airport:

Trip Planner

Search our weather history database for the weather conditions in past years. The results will help you decide how hot, cold, wet, or windy it might be!

Date:

Astronomy

Aug. 02, 2013 Rise Set
Actual Time 6:08 AM MDT 8:14 PM MDT
Civil Twilight 5:38 AM MDT 8:43 PM MDT
Nautical Twilight 5:03 AM MDT 9:19 PM MDT
Astronomical Twilight 4:24 AM MDT 9:57 PM MDT
Moon 2:32 AM MDT (8/2) 5:13 PM MDT (8/2)
Length of Visible Light 15h 04m
Length of Day
14h 05m
Waning Crescent, 15% of the Moon is Illuminated
Aug 2
Waning Crescent
Aug 6
New
Aug 14
First Quarter
Aug 20
Full
Aug 28
Last Quarter

Hourly Weather History & Observations

Time (MDT) Temp. Windchill Dew Point Humidity Pressure Visibility Wind Dir Wind Speed Gust Speed Precip Events Conditions
12:15 AM 42.8 °F 32.9 °F 41.0 °F 93% 30.69 in - WSW 26.5 mph - N/A   Unknown
12:35 AM 42.8 °F 33.3 °F 41.0 °F 93% 30.69 in - West 24.2 mph - N/A   Unknown
12:55 AM 42.8 °F 33.3 °F 41.0 °F 93% 30.69 in - West 24.2 mph - N/A   Unknown
1:15 AM 42.8 °F 32.9 °F 41.0 °F 93% 30.67 in - WSW 26.5 mph - N/A   Unknown
1:35 AM 42.8 °F 32.9 °F 41.0 °F 93% 30.67 in - WSW 26.5 mph - N/A   Unknown
1:55 AM 42.8 °F 32.9 °F 41.0 °F 93% 30.67 in - West 26.5 mph - N/A   Unknown
2:15 AM 42.8 °F 32.7 °F 41.0 °F 93% 30.66 in - West 27.6 mph - N/A   Overcast
2:35 AM 42.8 °F 31.9 °F 41.0 °F 93% 30.66 in - West 32.2 mph - N/A   Overcast
2:55 AM 42.8 °F 31.8 °F 41.0 °F 93% 30.67 in - West 33.4 mph - N/A   Overcast
3:15 AM 42.8 °F 32.1 °F 41.0 °F 93% 30.66 in - West 31.1 mph 35.7 mph N/A   Overcast
3:35 AM 42.8 °F 32.3 °F 41.0 °F 93% 30.66 in - West 29.9 mph 35.7 mph N/A   Overcast
3:55 AM 42.8 °F 31.8 °F 41.0 °F 93% 30.65 in - West 33.4 mph 40.3 mph N/A   Overcast
4:15 AM 42.8 °F 31.6 °F 41.0 °F 93% 30.64 in - West 34.5 mph - N/A   Overcast
4:35 AM 42.8 °F 31.4 °F 41.0 °F 93% 30.64 in - West 35.7 mph 44.9 mph N/A   Overcast
4:55 AM 42.8 °F 31.8 °F 41.0 °F 93% 30.63 in - West 33.4 mph 42.6 mph N/A   Overcast
5:15 AM 42.8 °F 31.9 °F 41.0 °F 93% 30.64 in - West 32.2 mph 42.6 mph N/A   Overcast
5:35 AM 41.0 °F 30.0 °F 41.0 °F 100% 30.64 in - West 28.8 mph 33.4 mph N/A   Overcast
5:55 AM 41.0 °F 29.3 °F 39.2 °F 93% 30.63 in - West 33.4 mph 38.0 mph N/A   Overcast
6:15 AM 41.0 °F 29.0 °F 39.2 °F 93% 30.64 in - West 35.7 mph 42.6 mph N/A   Overcast
6:35 AM 41.0 °F 29.1 °F 39.2 °F 93% 30.65 in - West 34.5 mph - N/A   Overcast
6:55 AM 41.0 °F 30.5 °F 39.2 °F 93% 30.66 in - West 26.5 mph - N/A   Unknown
7:15 AM 41.0 °F 31.1 °F 41.0 °F 100% 30.67 in - West 23.0 mph - N/A   Unknown
7:35 AM 42.8 °F 33.8 °F 41.0 °F 93% 30.68 in - West 21.9 mph - N/A   Unknown
7:55 AM 42.8 °F 34.3 °F 37.4 °F 81% 30.69 in - West 19.6 mph - N/A   Unknown
8:15 AM 42.8 °F 36.6 °F 39.2 °F 87% 30.70 in - WNW 11.5 mph 17.3 mph N/A   Unknown
8:35 AM 44.6 °F 37.8 °F 39.2 °F 81% 30.70 in - West 15.0 mph - N/A   Clear
8:55 AM 44.6 °F 38.1 °F 41.0 °F 87% 30.71 in - West 13.8 mph 19.6 mph N/A   Clear
9:15 AM 44.6 °F 38.1 °F 41.0 °F 87% 30.72 in - West 13.8 mph - N/A   Unknown
9:35 AM 46.4 °F 41.9 °F 41.0 °F 81% 30.73 in - West 9.2 mph - N/A   Clear
9:55 AM 48.2 °F - 42.8 °F 82% 30.74 in - WSW 11.5 mph - N/A   Clear
10:15 AM 50.0 °F - 44.6 °F 82% 30.73 in - West 12.7 mph - N/A   Scattered Clouds
10:35 AM 50.0 °F - 44.6 °F 82% 30.74 in - West 13.8 mph - N/A   Scattered Clouds
10:55 AM 51.8 °F - 44.6 °F 76% 30.74 in - WSW 13.8 mph - N/A   Scattered Clouds
11:15 AM 51.8 °F - 44.6 °F 76% 30.74 in - West 10.4 mph - N/A   Scattered Clouds
11:35 AM 51.8 °F - 44.6 °F 76% 30.74 in - WNW 4.6 mph - N/A   Mostly Cloudy
11:55 AM 53.6 °F - 46.4 °F 77% 30.74 in - West 6.9 mph - N/A   Scattered Clouds
12:15 PM 53.6 °F - 46.4 °F 77% 30.75 in - WSW 12.7 mph 16.1 mph N/A   Mostly Cloudy
12:35 PM 53.6 °F - 44.6 °F 72% 30.75 in - WSW 15.0 mph 18.4 mph N/A   Overcast
12:55 PM 55.4 °F - 44.6 °F 67% 30.75 in - WSW 17.3 mph 23.0 mph N/A   Mostly Cloudy
1:15 PM 57.2 °F - 44.6 °F 63% 30.75 in - SW 12.7 mph - N/A   Scattered Clouds
1:35 PM 55.4 °F - 42.8 °F 63% 30.74 in - WSW 18.4 mph 25.3 mph N/A   Mostly Cloudy
1:55 PM 59.0 °F - 42.8 °F 55% 30.73 in - West 19.6 mph 25.3 mph N/A   Mostly Cloudy
2:15 PM 59.0 °F - 41.0 °F 51% 30.74 in - West 21.9 mph 28.8 mph N/A   Scattered Clouds
2:35 PM 59.0 °F - 41.0 °F 51% 30.74 in - WSW 17.3 mph 27.6 mph N/A   Scattered Clouds
2:55 PM 59.0 °F - 37.4 °F 45% 30.73 in - WSW 19.6 mph 28.8 mph N/A   Scattered Clouds
3:15 PM 60.8 °F - 39.2 °F 45% 30.73 in - West 25.3 mph 32.2 mph N/A   Scattered Clouds
3:35 PM 60.8 °F - 41.0 °F 48% 30.72 in - West 21.9 mph 27.6 mph N/A   Scattered Clouds
3:55 PM 60.8 °F - 39.2 °F 45% 30.72 in - WNW 17.3 mph 24.2 mph N/A   Clear
4:15 PM 62.6 °F - 37.4 °F 39% 30.73 in - West 11.5 mph 24.2 mph N/A   Clear
4:35 PM 60.8 °F - 37.4 °F 42% 30.72 in - WSW 12.7 mph 24.2 mph N/A   Clear
4:55 PM 60.8 °F - 35.6 °F 39% 30.71 in - WSW 16.1 mph 24.2 mph N/A   Clear
5:15 PM 60.8 °F - 33.8 °F 36% 30.71 in - WSW 16.1 mph 24.2 mph N/A Thunderstorm Thunderstorm
5:35 PM 60.8 °F - 33.8 °F 36% 30.71 in - West 23.0 mph 27.6 mph N/A   Clear
5:55 PM 60.8 °F - 33.8 °F 36% 30.71 in - West 16.1 mph - N/A   Clear
6:15 PM 62.6 °F - 33.8 °F 34% 30.71 in - West 15.0 mph - N/A   Clear
6:35 PM 62.6 °F - 33.8 °F 34% 30.72 in - West 17.3 mph 21.9 mph N/A   Clear
6:55 PM 59.0 °F - 32.0 °F 36% 30.72 in - West 13.8 mph - N/A   Clear
7:15 PM 59.0 °F - 32.0 °F 36% 30.72 in - West 16.1 mph - N/A   Clear
7:32 PM 57.2 °F - 32.0 °F 38% 30.73 in - West 8.1 mph - N/A   Scattered Clouds
7:55 PM 51.8 °F - 41.0 °F 67% 30.73 in - ENE 9.2 mph - N/A   Scattered Clouds
8:15 PM 50.0 °F - 41.0 °F 71% 30.73 in - NE 13.8 mph - N/A   Clear
8:35 PM 50.0 °F - 41.0 °F 71% 30.74 in - ENE 10.4 mph - N/A   Clear
8:55 PM 50.0 °F - 41.0 °F 71% 30.75 in - NE 6.9 mph - N/A   Clear
9:15 PM 50.0 °F - 41.0 °F 71% 30.76 in - ENE 5.8 mph - N/A   Clear
9:35 PM 51.8 °F - 37.4 °F 58% 30.76 in - NNW 4.6 mph - N/A   Clear
9:55 PM 51.8 °F - 37.4 °F 58% 30.76 in - West 5.8 mph - N/A   Clear
10:15 PM 51.8 °F - 37.4 °F 58% 30.76 in - Calm Calm - N/A   Clear
10:35 PM 51.8 °F - 35.6 °F 54% 30.76 in - West 11.5 mph - N/A   Clear
10:55 PM 50.0 °F - 37.4 °F 62% 30.76 in - West 10.4 mph - N/A   Scattered Clouds
11:15 PM 50.0 °F - 37.4 °F 62% 30.76 in - West 16.1 mph - N/A   Scattered Clouds
11:35 PM 50.0 °F - 39.2 °F 66% 30.75 in - West 19.6 mph - N/A   Scattered Clouds
11:55 PM 50.0 °F - 41.0 °F 71% 30.75 in - West 19.6 mph - N/A   Clear